TimeEST,TemperatureF,Dew PointF,Humidity,Sea Level PressureIn,VisibilityMPH,Wind Direction,Wind SpeedMPH,Gust SpeedMPH,PrecipitationIn,Events,Conditions,WindDirDegrees,DateUTC
12:52 AM,34.0,23.0,64,29.90,10.0,Variable,5.8,-,N/A,,Clear,0,2012-11-26 05:52:00
1:52 AM,34.0,21.9,61,29.92,10.0,Variable,5.8,-,N/A,,Clear,0,2012-11-26 06:52:00
2:52 AM,34.0,21.9,61,29.93,10.0,West,6.9,-,N/A,,Clear,270,2012-11-26 07:52:00
3:52 AM,34.0,23.0,64,29.94,10.0,West,5.8,-,N/A,,Clear,270,2012-11-26 08:52:00
4:52 AM,33.1,23.0,66,29.96,10.0,West,5.8,-,N/A,,Clear,280,2012-11-26 09:52:00
5:52 AM,30.9,21.9,69,29.96,10.0,Calm,Calm,-,N/A,,Clear,0,2012-11-26 10:52:00
6:52 AM,30.9,21.9,69,29.98,10.0,Calm,Calm,-,N/A,,Clear,0,2012-11-26 11:52:00
7:52 AM,34.0,24.1,67,29.99,10.0,West,3.5,-,N/A,,Clear,260,2012-11-26 12:52:00
8:52 AM,39.9,23.0,51,30.01,10.0,West,8.1,-,N/A,,Scattered Clouds,280,2012-11-26 13:52:00
9:52 AM,43.0,24.1,47,30.02,10.0,West,13.8,24.2,N/A,,Clear,280,2012-11-26 14:52:00
10:52 AM,45.0,23.0,42,30.02,10.0,West,9.2,-,N/A,,Clear,280,2012-11-26 15:52:00
11:52 AM,46.0,21.9,39,30.01,10.0,WNW,10.4,20.7,N/A,,Clear,290,2012-11-26 16:52:00
12:52 PM,46.0,23.0,40,30.03,10.0,WNW,8.1,-,N/A,,Clear,290,2012-11-26 17:52:00
1:52 PM,46.9,23.0,39,30.04,10.0,West,9.2,20.7,N/A,,Clear,280,2012-11-26 18:52:00
2:52 PM,46.0,21.0,37,30.06,10.0,WNW,10.4,16.1,N/A,,Scattered Clouds,300,2012-11-26 19:52:00
3:52 PM,44.1,21.9,42,30.10,10.0,WNW,5.8,-,N/A,,Clear,300,2012-11-26 20:52:00
4:52 PM,39.0,21.0,49,30.13,10.0,Calm,Calm,-,N/A,,Clear,0,2012-11-26 21:52:00
5:52 PM,37.0,21.0,52,30.16,10.0,Calm,Calm,-,N/A,,Clear,0,2012-11-26 22:52:00
6:52 PM,37.0,19.9,50,30.18,10.0,West,5.8,-,N/A,,Clear,280,2012-11-26 23:52:00
7:52 PM,35.1,19.0,52,30.21,10.0,West,3.5,-,N/A,,Clear,260,2012-11-27 00:52:00
8:52 PM,35.1,19.9,54,30.22,10.0,WNW,4.6,-,N/A,,Clear,290,2012-11-27 01:52:00
9:52 PM,33.1,21.9,64,30.24,10.0,WNW,3.5,-,N/A,,Clear,290,2012-11-27 02:52:00
10:52 PM,33.1,21.9,64,30.26,10.0,West,3.5,-,N/A,,Clear,280,2012-11-27 03:52:00
11:52 PM,34.0,24.1,67,30.26,10.0,WNW,3.5,-,N/A,,Clear,300,2012-11-27 04:52:00